Year,Month,Day,Hour,Minute,Value (Times are PST for temperature in C)
2010,11,04,00,00,6.30
2010,11,04,00,01,6.30
2010,11,04,00,02,6.20
2010,11,04,00,03,6.20
2010,11,04,00,04,6.20
2010,11,04,00,05,6.20
2010,11,04,00,06,6.20
2010,11,04,00,07,6.20
2010,11,04,00,08,6.20
2010,11,04,00,09,6.20
2010,11,04,00,10,6.20
2010,11,04,00,11,6.20
2010,11,04,00,12,6.20
2010,11,04,00,13,6.20
2010,11,04,00,14,6.20
2010,11,04,00,15,6.20
2010,11,04,00,16,6.30
2010,11,04,00,17,6.30
2010,11,04,00,18,6.20
2010,11,04,00,19,6.30
2010,11,04,00,20,6.20
2010,11,04,00,21,6.20
2010,11,04,00,22,6.20
2010,11,04,00,23,6.20
2010,11,04,00,24,6.20
2010,11,04,00,25,6.20
2010,11,04,00,26,6.20
2010,11,04,00,27,6.20
2010,11,04,00,28,6.20
2010,11,04,00,29,6.30
2010,11,04,00,30,6.30
2010,11,04,00,31,6.30
2010,11,04,00,32,6.30
2010,11,04,00,33,6.30
2010,11,04,00,34,6.30
2010,11,04,00,35,6.30
2010,11,04,00,36,6.30
2010,11,04,00,37,6.20
2010,11,04,00,38,6.20
2010,11,04,00,39,6.20
2010,11,04,00,40,6.20
2010,11,04,00,41,6.20
2010,11,04,00,42,6.10
2010,11,04,00,43,6.10
2010,11,04,00,44,6.10
2010,11,04,00,45,6.00
2010,11,04,00,46,6.00
2010,11,04,00,47,5.90
2010,11,04,00,48,5.90
2010,11,04,00,49,5.90
2010,11,04,00,50,5.90
2010,11,04,00,51,6.00
2010,11,04,00,52,6.00
2010,11,04,00,53,6.00
2010,11,04,00,54,6.00
2010,11,04,00,55,6.00
2010,11,04,00,56,6.00
2010,11,04,00,57,6.10
2010,11,04,00,58,6.10
2010,11,04,00,59,6.10
2010,11,04,01,00,6.10
2010,11,04,01,01,6.10
2010,11,04,01,02,6.10
2010,11,04,01,03,6.10
2010,11,04,01,04,6.00
2010,11,04,01,05,6.00
2010,11,04,01,06,5.90
2010,11,04,01,07,5.90
2010,11,04,01,08,6.00
2010,11,04,01,09,6.00
2010,11,04,01,10,6.00
2010,11,04,01,11,6.10
2010,11,04,01,12,6.10
2010,11,04,01,13,6.10
2010,11,04,01,14,6.10
2010,11,04,01,15,6.10
2010,11,04,01,16,6.00
2010,11,04,01,17,6.00
2010,11,04,01,18,6.00
2010,11,04,01,19,6.00
2010,11,04,01,20,6.00
2010,11,04,01,21,6.00
2010,11,04,01,22,6.00
2010,11,04,01,23,6.00
2010,11,04,01,24,6.00
2010,11,04,01,25,6.00
2010,11,04,01,26,5.90
2010,11,04,01,27,5.90
2010,11,04,01,28,5.90
2010,11,04,01,29,5.90
2010,11,04,01,30,5.90
2010,11,04,01,31,5.90
2010,11,04,01,32,5.90
2010,11,04,01,33,5.90
2010,11,04,01,34,5.90
2010,11,04,01,35,5.90
2010,11,04,01,36,5.90
2010,11,04,01,37,5.90
2010,11,04,01,38,5.90
2010,11,04,01,39,5.90
2010,11,04,01,40,5.90
2010,11,04,01,41,5.90
2010,11,04,01,42,5.90
2010,11,04,01,43,5.90
2010,11,04,01,44,5.90
2010,11,04,01,45,5.90
2010,11,04,01,46,5.90
2010,11,04,01,47,5.90
2010,11,04,01,48,5.90
2010,11,04,01,49,5.90
2010,11,04,01,50,5.90
2010,11,04,01,51,5.80
2010,11,04,01,52,5.80
2010,11,04,01,53,5.80
2010,11,04,01,54,5.80
2010,11,04,01,55,5.80
2010,11,04,01,56,5.80
2010,11,04,01,57,5.80
2010,11,04,01,58,5.80
2010,11,04,01,59,5.80
2010,11,04,02,00,5.80
2010,11,04,02,01,5.90
2010,11,04,02,02,5.90
2010,11,04,02,03,5.90
2010,11,04,02,04,5.90
2010,11,04,02,05,5.90
2010,11,04,02,06,5.90
2010,11,04,02,07,5.90
2010,11,04,02,08,5.90
2010,11,04,02,09,5.90
2010,11,04,02,10,5.90
2010,11,04,02,11,5.90
2010,11,04,02,12,5.90
2010,11,04,02,13,5.90
2010,11,04,02,14,5.80
2010,11,04,02,15,5.80
2010,11,04,02,16,5.80
2010,11,04,02,17,5.80
2010,11,04,02,18,5.80
2010,11,04,02,19,5.80
2010,11,04,02,20,5.80
2010,11,04,02,21,5.80
2010,11,04,02,22,5.80
2010,11,04,02,23,5.80
2010,11,04,02,24,5.80
2010,11,04,02,25,5.80
2010,11,04,02,26,5.80
2010,11,04,02,27,5.80
2010,11,04,02,28,5.80
2010,11,04,02,29,5.80
2010,11,04,02,30,5.70
2010,11,04,02,31,5.70
2010,11,04,02,32,5.70
2010,11,04,02,33,5.70
2010,11,04,02,34,5.70
2010,11,04,02,35,5.80
2010,11,04,02,36,5.80
2010,11,04,02,37,5.80
2010,11,04,02,38,5.80
2010,11,04,02,39,5.80
2010,11,04,02,40,5.80
2010,11,04,02,41,5.70
2010,11,04,02,42,5.80
2010,11,04,02,43,5.80
2010,11,04,02,44,5.80
2010,11,04,02,45,5.80
2010,11,04,02,46,5.80
2010,11,04,02,47,5.70
2010,11,04,02,48,5.70
2010,11,04,02,49,5.70
2010,11,04,02,50,5.70
2010,11,04,02,51,5.70
2010,11,04,02,52,5.70
2010,11,04,02,53,5.80
2010,11,04,02,54,5.80
2010,11,04,02,55,5.80
2010,11,04,02,56,5.80
2010,11,04,02,57,5.70
2010,11,04,02,58,5.70
2010,11,04,02,59,5.70
2010,11,04,03,00,5.70
2010,11,04,03,01,5.70
2010,11,04,03,02,5.70
2010,11,04,03,03,5.70
2010,11,04,03,04,5.70
2010,11,04,03,05,5.70
2010,11,04,03,06,5.70
2010,11,04,03,07,5.70
2010,11,04,03,08,5.70
2010,11,04,03,09,5.70
2010,11,04,03,10,5.60
2010,11,04,03,11,5.60
2010,11,04,03,12,5.60
2010,11,04,03,13,5.60
2010,11,04,03,14,5.50
2010,11,04,03,15,5.50
2010,11,04,03,16,5.50
2010,11,04,03,17,5.60
2010,11,04,03,18,5.50
2010,11,04,03,19,5.50
2010,11,04,03,20,5.50
2010,11,04,03,21,5.50
2010,11,04,03,22,5.50
2010,11,04,03,23,5.50
2010,11,04,03,24,5.50
2010,11,04,03,25,5.50
2010,11,04,03,26,5.50
2010,11,04,03,27,5.50
2010,11,04,03,28,5.50
2010,11,04,03,29,5.60
2010,11,04,03,30,5.60
2010,11,04,03,31,5.60
2010,11,04,03,32,5.60
2010,11,04,03,33,5.60
2010,11,04,03,34,5.60
2010,11,04,03,35,5.60
2010,11,04,03,36,5.60
2010,11,04,03,37,5.60
2010,11,04,03,38,5.60
2010,11,04,03,39,5.60
2010,11,04,03,40,5.50
2010,11,04,03,41,5.50
2010,11,04,03,42,5.50
2010,11,04,03,43,5.40
2010,11,04,03,44,5.40
2010,11,04,03,45,5.40
2010,11,04,03,46,5.40
2010,11,04,03,47,5.30
2010,11,04,03,48,5.30
2010,11,04,03,49,5.30
2010,11,04,03,50,5.30
2010,11,04,03,51,5.30
2010,11,04,03,52,5.30
2010,11,04,03,53,5.40
2010,11,04,03,54,5.40
2010,11,04,03,55,5.40
2010,11,04,03,56,5.40
2010,11,04,03,57,5.40
2010,11,04,03,58,5.40
2010,11,04,03,59,5.40
2010,11,04,04,00,5.50
2010,11,04,04,01,5.50
2010,11,04,04,02,5.50
2010,11,04,04,03,5.50
2010,11,04,04,04,5.50
2010,11,04,04,05,5.40
2010,11,04,04,06,5.40
2010,11,04,04,07,5.40
2010,11,04,04,08,5.30
2010,11,04,04,09,5.40
2010,11,04,04,10,5.40
2010,11,04,04,11,5.40
2010,11,04,04,12,5.40
2010,11,04,04,13,5.40
2010,11,04,04,14,5.40
2010,11,04,04,15,5.40
2010,11,04,04,16,5.40
2010,11,04,04,17,5.30
2010,11,04,04,18,5.30
2010,11,04,04,19,5.30
2010,11,04,04,20,5.30
2010,11,04,04,21,5.30
2010,11,04,04,22,5.30
2010,11,04,04,23,5.40
2010,11,04,04,24,5.40
2010,11,04,04,25,5.40
2010,11,04,04,26,5.30
2010,11,04,04,27,5.30
2010,11,04,04,28,5.30
2010,11,04,04,29,5.30
2010,11,04,04,30,5.20
2010,11,04,04,31,5.20
2010,11,04,04,32,5.30
2010,11,04,04,33,5.30
2010,11,04,04,34,5.30
2010,11,04,04,35,5.30
2010,11,04,04,36,5.40
2010,11,04,04,37,5.40
2010,11,04,04,38,5.40
2010,11,04,04,39,5.40
2010,11,04,04,40,5.40
2010,11,04,04,41,5.40
2010,11,04,04,42,5.40
2010,11,04,04,43,5.40
2010,11,04,04,44,5.30
2010,11,04,04,45,5.30
2010,11,04,04,46,5.30
2010,11,04,04,47,5.30
2010,11,04,04,48,5.30
2010,11,04,04,49,5.30
2010,11,04,04,50,5.30
2010,11,04,04,51,5.40
2010,11,04,04,52,5.30
2010,11,04,04,53,5.30
2010,11,04,04,54,5.30
2010,11,04,04,55,5.30
2010,11,04,04,56,5.30
2010,11,04,04,57,5.30
2010,11,04,04,58,5.30
2010,11,04,04,59,5.30
2010,11,04,05,00,5.30
2010,11,04,05,01,5.30
2010,11,04,05,02,5.30
2010,11,04,05,03,5.40
2010,11,04,05,04,5.40
2010,11,04,05,05,5.40
2010,11,04,05,06,5.50
2010,11,04,05,07,5.50
2010,11,04,05,08,5.50
2010,11,04,05,09,5.40
2010,11,04,05,10,5.40
2010,11,04,05,11,5.40
2010,11,04,05,12,5.40
2010,11,04,05,13,5.40
2010,11,04,05,14,5.40
2010,11,04,05,15,5.40
2010,11,04,05,16,5.30
2010,11,04,05,17,5.30
2010,11,04,05,18,5.30
2010,11,04,05,19,5.30
2010,11,04,05,20,5.30
2010,11,04,05,21,5.30
2010,11,04,05,22,5.20
2010,11,04,05,23,5.20
2010,11,04,05,24,5.20
2010,11,04,05,25,5.20
2010,11,04,05,26,5.20
2010,11,04,05,27,5.10
2010,11,04,05,28,5.10
2010,11,04,05,29,5.10
2010,11,04,05,30,5.10
2010,11,04,05,31,5.10
2010,11,04,05,32,5.10
2010,11,04,05,33,5.10
2010,11,04,05,34,5.10
2010,11,04,05,35,5.10
2010,11,04,05,36,5.10
2010,11,04,05,37,5.10
2010,11,04,05,38,5.10
2010,11,04,05,39,5.10
2010,11,04,05,40,5.20
2010,11,04,05,41,5.20
2010,11,04,05,42,5.20
2010,11,04,05,43,5.10
2010,11,04,05,44,5.10
2010,11,04,05,45,5.10
2010,11,04,05,46,5.10
2010,11,04,05,47,5.10
2010,11,04,05,48,5.10
2010,11,04,05,49,5.20
2010,11,04,05,50,5.20
2010,11,04,05,51,5.20
2010,11,04,05,52,5.20
2010,11,04,05,53,5.20
2010,11,04,05,54,5.20
2010,11,04,05,55,5.20
2010,11,04,05,56,5.20
2010,11,04,05,57,5.20
2010,11,04,05,58,5.10
2010,11,04,05,59,5.10
2010,11,04,06,00,5.10
2010,11,04,06,01,5.20
2010,11,04,06,02,5.20
2010,11,04,06,03,5.20
2010,11,04,06,04,5.20
2010,11,04,06,05,5.20
2010,11,04,06,06,5.30
2010,11,04,06,07,5.20
2010,11,04,06,08,5.20
2010,11,04,06,09,5.20
2010,11,04,06,10,5.20
2010,11,04,06,11,5.20
2010,11,04,06,12,5.20
2010,11,04,06,13,5.20
2010,11,04,06,14,5.20
2010,11,04,06,15,5.20
2010,11,04,06,16,5.20
2010,11,04,06,17,5.20
2010,11,04,06,18,5.20
2010,11,04,06,19,5.20
2010,11,04,06,20,5.20
2010,11,04,06,21,5.20
2010,11,04,06,22,5.20
2010,11,04,06,23,5.20
2010,11,04,06,24,5.20
2010,11,04,06,25,5.20
2010,11,04,06,26,5.10
2010,11,04,06,27,5.10
2010,11,04,06,28,5.10
2010,11,04,06,29,5.10
2010,11,04,06,30,5.10
2010,11,04,06,31,5.10
2010,11,04,06,32,5.10
2010,11,04,06,33,5.10
2010,11,04,06,34,5.00
2010,11,04,06,35,5.00
2010,11,04,06,36,4.90
2010,11,04,06,37,4.90
2010,11,04,06,38,5.00
2010,11,04,06,39,5.00
2010,11,04,06,40,5.00
2010,11,04,06,41,5.10
2010,11,04,06,42,5.10
2010,11,04,06,43,5.10
2010,11,04,06,44,5.10
2010,11,04,06,45,5.10
2010,11,04,06,46,5.10
2010,11,04,06,47,5.10
2010,11,04,06,48,5.10
2010,11,04,06,49,5.10
2010,11,04,06,50,5.10
2010,11,04,06,51,5.10
2010,11,04,06,52,5.10
2010,11,04,06,53,5.10
2010,11,04,06,54,5.10
2010,11,04,06,55,5.10
2010,11,04,06,56,5.10
2010,11,04,06,57,5.10
2010,11,04,06,58,5.10
2010,11,04,06,59,5.10
2010,11,04,07,00,5.00
2010,11,04,07,01,5.00
2010,11,04,07,02,5.00
2010,11,04,07,03,5.00
2010,11,04,07,04,5.00
2010,11,04,07,05,5.10
2010,11,04,07,06,5.10
2010,11,04,07,07,5.10
2010,11,04,07,08,5.20
2010,11,04,07,09,5.20
2010,11,04,07,10,5.20
2010,11,04,07,11,5.20
2010,11,04,07,12,5.20
2010,11,04,07,13,5.20
2010,11,04,07,14,5.20
2010,11,04,07,15,5.20
2010,11,04,07,16,5.20
2010,11,04,07,17,5.10
2010,11,04,07,18,5.10
2010,11,04,07,19,5.10
2010,11,04,07,20,5.10
2010,11,04,07,21,5.10
2010,11,04,07,22,5.10
2010,11,04,07,23,5.10
2010,11,04,07,24,5.10
2010,11,04,07,25,5.10
2010,11,04,07,26,5.10
2010,11,04,07,27,5.10
2010,11,04,07,28,5.10
2010,11,04,07,29,5.00
2010,11,04,07,30,5.00
2010,11,04,07,31,5.00
2010,11,04,07,32,4.90
2010,11,04,07,33,4.90
2010,11,04,07,34,4.90
2010,11,04,07,35,4.90
2010,11,04,07,36,4.90
2010,11,04,07,37,5.00
2010,11,04,07,38,5.00
2010,11,04,07,39,5.00
2010,11,04,07,40,5.00
2010,11,04,07,41,5.00
2010,11,04,07,42,5.00
2010,11,04,07,43,5.00
2010,11,04,07,44,5.00
2010,11,04,07,45,5.00
2010,11,04,07,46,5.00
2010,11,04,07,47,5.10
2010,11,04,07,48,5.10
2010,11,04,07,49,5.10
2010,11,04,07,50,5.10
2010,11,04,07,51,5.10
2010,11,04,07,52,5.10
2010,11,04,07,53,5.00
2010,11,04,07,54,5.00
2010,11,04,07,55,5.00
2010,11,04,07,56,5.00
2010,11,04,07,57,5.00
2010,11,04,07,58,5.00
2010,11,04,07,59,5.00
2010,11,04,08,00,5.00
2010,11,04,08,01,5.00
2010,11,04,08,02,4.90
2010,11,04,08,03,4.90
2010,11,04,08,04,4.90
2010,11,04,08,05,4.90
2010,11,04,08,06,4.90
2010,11,04,08,07,4.90
2010,11,04,08,08,4.90
2010,11,04,08,09,4.90
2010,11,04,08,10,4.90
2010,11,04,08,11,4.90
2010,11,04,08,12,5.00
2010,11,04,08,13,5.00
2010,11,04,08,14,5.00
2010,11,04,08,15,5.00
2010,11,04,08,16,5.00
2010,11,04,08,17,5.00
2010,11,04,08,18,5.10
2010,11,04,08,19,5.10
2010,11,04,08,20,5.10
2010,11,04,08,21,5.10
2010,11,04,08,22,5.10
2010,11,04,08,23,5.10
2010,11,04,08,24,5.10
2010,11,04,08,25,5.10
2010,11,04,08,26,5.10
2010,11,04,08,27,5.10
2010,11,04,08,28,5.10
2010,11,04,08,29,5.10
2010,11,04,08,30,5.10
2010,11,04,08,31,5.10
2010,11,04,08,32,5.10
2010,11,04,08,33,5.10
2010,11,04,08,34,5.20
2010,11,04,08,35,5.20
2010,11,04,08,36,5.20
2010,11,04,08,37,5.20
2010,11,04,08,38,5.20
2010,11,04,08,39,5.20
2010,11,04,08,40,5.20
2010,11,04,08,41,5.20
2010,11,04,08,42,5.20
2010,11,04,08,43,5.20
2010,11,04,08,44,5.20
2010,11,04,08,45,5.20
2010,11,04,08,46,5.20
2010,11,04,08,47,5.20
2010,11,04,08,48,5.20
2010,11,04,08,49,5.20
2010,11,04,08,50,5.20
2010,11,04,08,51,5.20
2010,11,04,08,52,5.20
2010,11,04,08,53,5.20
2010,11,04,08,54,5.30
2010,11,04,08,55,5.30
2010,11,04,08,56,5.30
2010,11,04,08,57,5.30
2010,11,04,08,58,5.30
2010,11,04,08,59,5.30
2010,11,04,09,00,5.30
2010,11,04,09,01,5.30
2010,11,04,09,02,5.40
2010,11,04,09,03,5.40
2010,11,04,09,04,5.40
2010,11,04,09,05,5.40
2010,11,04,09,06,5.50
2010,11,04,09,07,5.50
2010,11,04,09,08,5.50
2010,11,04,09,09,5.50
2010,11,04,09,10,5.60
2010,11,04,09,11,5.60
2010,11,04,09,12,5.60
2010,11,04,09,13,5.60
2010,11,04,09,14,5.60
2010,11,04,09,15,5.60
2010,11,04,09,16,5.60
2010,11,04,09,17,5.60
2010,11,04,09,18,5.60
2010,11,04,09,19,5.60
2010,11,04,09,20,5.60
2010,11,04,09,21,5.60
2010,11,04,09,22,5.60
2010,11,04,09,23,5.60
2010,11,04,09,24,5.70
2010,11,04,09,25,5.70
2010,11,04,09,26,5.70
2010,11,04,09,27,5.70
2010,11,04,09,28,5.70
2010,11,04,09,29,5.70
2010,11,04,09,30,5.70
2010,11,04,09,31,5.70
2010,11,04,09,32,5.70
2010,11,04,09,33,5.80
2010,11,04,09,34,5.80
2010,11,04,09,35,5.80
2010,11,04,09,36,5.90
2010,11,04,09,37,5.90
2010,11,04,09,38,5.90
2010,11,04,09,39,5.90
2010,11,04,09,40,5.90
2010,11,04,09,41,5.90
2010,11,04,09,42,5.90
2010,11,04,09,43,5.90
2010,11,04,09,44,6.00
2010,11,04,09,45,6.00
2010,11,04,09,46,6.00
2010,11,04,09,47,6.10
2010,11,04,09,48,6.10
2010,11,04,09,49,6.10
2010,11,04,09,50,6.10
2010,11,04,09,51,6.10
2010,11,04,09,52,6.20
2010,11,04,09,53,6.20
2010,11,04,09,54,6.20
2010,11,04,09,55,6.30
2010,11,04,09,56,6.30
2010,11,04,09,57,6.40
2010,11,04,09,58,6.40
2010,11,04,09,59,6.40
2010,11,04,10,00,6.50
2010,11,04,10,01,6.50
2010,11,04,10,02,6.50
2010,11,04,10,03,6.60
2010,11,04,10,04,6.60
2010,11,04,10,05,6.70
2010,11,04,10,06,6.70
2010,11,04,10,07,6.70
2010,11,04,10,08,6.80
2010,11,04,10,09,6.80
2010,11,04,10,10,6.90
2010,11,04,10,11,6.90
2010,11,04,10,12,7.00
2010,11,04,10,13,7.00
2010,11,04,10,14,7.10
2010,11,04,10,15,7.10
2010,11,04,10,16,7.20
2010,11,04,10,17,7.20
2010,11,04,10,18,7.20
2010,11,04,10,19,7.20
2010,11,04,10,20,7.30
2010,11,04,10,21,7.30
2010,11,04,10,22,7.30
2010,11,04,10,23,7.40
2010,11,04,10,24,7.40
2010,11,04,10,25,7.40
2010,11,04,10,26,7.40
2010,11,04,10,27,7.40
2010,11,04,10,28,7.50
2010,11,04,10,29,7.50
2010,11,04,10,30,7.50
2010,11,04,10,31,7.50
2010,11,04,10,32,7.60
2010,11,04,10,33,7.60
2010,11,04,10,34,7.60
2010,11,04,10,35,7.60
2010,11,04,10,36,7.70
2010,11,04,10,37,7.70
2010,11,04,10,38,7.70
2010,11,04,10,39,7.70
2010,11,04,10,40,7.80
2010,11,04,10,41,7.80
2010,11,04,10,42,7.80
2010,11,04,10,43,7.80
2010,11,04,10,44,7.80
2010,11,04,10,45,7.90
2010,11,04,10,46,7.90
2010,11,04,10,47,7.90
2010,11,04,10,48,7.90
2010,11,04,10,49,8.00
2010,11,04,10,50,8.10
2010,11,04,10,51,8.10
2010,11,04,10,52,8.10
2010,11,04,10,53,8.20
2010,11,04,10,54,8.20
2010,11,04,10,55,8.20
2010,11,04,10,56,8.20
2010,11,04,10,57,8.30
2010,11,04,10,58,8.30
2010,11,04,10,59,8.30
2010,11,04,11,00,8.30
2010,11,04,11,01,8.40
2010,11,04,11,02,8.40
2010,11,04,11,03,8.40
2010,11,04,11,04,8.50
2010,11,04,11,05,8.50
2010,11,04,11,06,8.50
2010,11,04,11,07,8.60
2010,11,04,11,08,8.60
2010,11,04,11,09,8.60
2010,11,04,11,10,8.70
2010,11,04,11,11,8.70
2010,11,04,11,12,8.70
2010,11,04,11,13,8.70
2010,11,04,11,14,8.80
2010,11,04,11,15,8.80
2010,11,04,11,16,8.80
2010,11,04,11,17,8.80
2010,11,04,11,18,8.90
2010,11,04,11,19,8.90
2010,11,04,11,20,8.90
2010,11,04,11,21,8.90
2010,11,04,11,22,9.00
2010,11,04,11,23,9.00
2010,11,04,11,24,9.00
2010,11,04,11,25,9.10
2010,11,04,11,26,9.10
2010,11,04,11,27,9.10
2010,11,04,11,28,9.10
2010,11,04,11,29,9.20
2010,11,04,11,30,9.20
2010,11,04,11,31,9.20
2010,11,04,11,32,9.20
2010,11,04,11,33,9.30
2010,11,04,11,34,9.30
2010,11,04,11,35,9.30
2010,11,04,11,36,9.40
2010,11,04,11,37,9.40
2010,11,04,11,38,9.50
2010,11,04,11,39,9.50
2010,11,04,11,40,9.60
2010,11,04,11,41,9.60
2010,11,04,11,42,9.60
2010,11,04,11,43,9.60
2010,11,04,11,44,9.60
2010,11,04,11,45,9.70
2010,11,04,11,46,9.70
2010,11,04,11,47,9.70
2010,11,04,11,48,9.70
2010,11,04,11,49,9.70
2010,11,04,11,50,9.70
2010,11,04,11,51,9.80
2010,11,04,11,52,9.80
2010,11,04,11,53,9.80
2010,11,04,11,54,9.80
2010,11,04,11,55,9.80
2010,11,04,11,56,9.80
2010,11,04,11,57,9.80
2010,11,04,11,58,9.80
2010,11,04,11,59,9.80
2010,11,04,12,00,9.80
2010,11,04,12,01,9.80
2010,11,04,12,02,9.80
2010,11,04,12,03,9.80
2010,11,04,12,04,9.90
2010,11,04,12,05,9.90
2010,11,04,12,06,9.90
2010,11,04,12,07,10.00
2010,11,04,12,08,10.00
2010,11,04,12,09,10.00
2010,11,04,12,10,10.10
2010,11,04,12,11,10.10
2010,11,04,12,12,10.20
2010,11,04,12,13,10.20
2010,11,04,12,14,10.30
2010,11,04,12,15,10.30
2010,11,04,12,16,10.30
2010,11,04,12,17,10.40
2010,11,04,12,18,10.50
2010,11,04,12,19,10.50
2010,11,04,12,20,10.60
2010,11,04,12,21,10.70
2010,11,04,12,22,10.80
2010,11,04,12,23,10.90
2010,11,04,12,24,11.00
2010,11,04,12,25,11.10
2010,11,04,12,26,11.10
2010,11,04,12,27,11.20
2010,11,04,12,28,11.30
2010,11,04,12,29,11.30
2010,11,04,12,30,11.50
2010,11,04,12,31,11.60
2010,11,04,12,32,11.60
2010,11,04,12,33,11.70
2010,11,04,12,34,11.80
2010,11,04,12,35,11.90
2010,11,04,12,36,11.90
2010,11,04,12,37,12.00
2010,11,04,12,38,12.10
2010,11,04,12,39,12.10
2010,11,04,12,40,12.20
2010,11,04,12,41,12.20
2010,11,04,12,42,12.30
2010,11,04,12,43,12.30
2010,11,04,12,44,12.30
2010,11,04,12,45,12.30
2010,11,04,12,46,12.20
2010,11,04,12,47,12.20
2010,11,04,12,48,12.20
2010,11,04,12,49,12.20
2010,11,04,12,50,12.10
2010,11,04,12,51,12.10
2010,11,04,12,52,12.10
2010,11,04,12,53,12.10
2010,11,04,12,54,12.10
2010,11,04,12,55,12.10
2010,11,04,12,56,12.10
2010,11,04,12,57,12.10
2010,11,04,12,58,12.00
2010,11,04,12,59,12.10
2010,11,04,13,00,12.10
2010,11,04,13,01,12.10
2010,11,04,13,02,12.10
2010,11,04,13,03,12.10
2010,11,04,13,04,12.20
2010,11,04,13,05,12.20
2010,11,04,13,06,12.20
2010,11,04,13,07,12.30
2010,11,04,13,08,12.30
2010,11,04,13,09,12.30
2010,11,04,13,10,12.40
2010,11,04,13,11,12.40
2010,11,04,13,12,12.50
2010,11,04,13,13,12.60
2010,11,04,13,14,12.60
2010,11,04,13,15,12.60
2010,11,04,13,16,12.70
2010,11,04,13,17,12.70
2010,11,04,13,18,12.80
2010,11,04,13,19,12.90
2010,11,04,13,20,13.00
2010,11,04,13,21,13.00
2010,11,04,13,22,13.10
2010,11,04,13,23,13.20
2010,11,04,13,24,13.20
2010,11,04,13,25,13.30
2010,11,04,13,26,13.30
2010,11,04,13,27,13.30
2010,11,04,13,28,13.40
2010,11,04,13,29,13.50
2010,11,04,13,30,13.60
2010,11,04,13,31,13.70
2010,11,04,13,32,13.70
2010,11,04,13,33,13.80
2010,11,04,13,34,13.90
2010,11,04,13,35,13.90
2010,11,04,13,36,13.90
2010,11,04,13,37,14.00
2010,11,04,13,38,14.10
2010,11,04,13,39,14.20
2010,11,04,13,40,14.20
2010,11,04,13,41,14.30
2010,11,04,13,42,14.20
2010,11,04,13,43,14.20
2010,11,04,13,44,14.20
2010,11,04,13,45,14.20
2010,11,04,13,46,14.20
2010,11,04,13,47,14.30
2010,11,04,13,48,14.30
2010,11,04,13,49,14.30
2010,11,04,13,50,14.40
2010,11,04,13,51,14.40
2010,11,04,13,52,14.50
2010,11,04,13,53,14.50
2010,11,04,13,54,14.60
2010,11,04,13,55,14.60
2010,11,04,13,56,14.60
2010,11,04,13,57,14.60
2010,11,04,13,58,14.70
2010,11,04,13,59,14.70
2010,11,04,14,00,14.80
2010,11,04,14,01,14.80
2010,11,04,14,02,14.80
2010,11,04,14,03,14.80
2010,11,04,14,04,14.80
2010,11,04,14,05,14.80
2010,11,04,14,06,14.80
2010,11,04,14,07,14.70
2010,11,04,14,08,14.70
2010,11,04,14,09,14.60
2010,11,04,14,10,14.60
2010,11,04,14,11,14.60
2010,11,04,14,12,14.60
2010,11,04,14,13,14.60
2010,11,04,14,14,14.60
2010,11,04,14,15,14.70
2010,11,04,14,16,14.70
2010,11,04,14,17,14.80
2010,11,04,14,18,14.90
2010,11,04,14,19,14.90
2010,11,04,14,20,15.00
2010,11,04,14,21,15.00
2010,11,04,14,22,15.00
2010,11,04,14,23,15.00
2010,11,04,14,24,15.00
2010,11,04,14,25,14.90
2010,11,04,14,26,14.90
2010,11,04,14,27,14.90
2010,11,04,14,28,14.90
2010,11,04,14,29,14.80
2010,11,04,14,30,14.80
2010,11,04,14,31,14.80
2010,11,04,14,32,14.70
2010,11,04,14,33,14.70
2010,11,04,14,34,14.60
2010,11,04,14,35,14.60
2010,11,04,14,36,14.60
2010,11,04,14,37,14.50
2010,11,04,14,38,14.50
2010,11,04,14,39,14.50
2010,11,04,14,40,14.50
2010,11,04,14,41,14.40
2010,11,04,14,42,14.40
2010,11,04,14,43,14.40
2010,11,04,14,44,14.30
2010,11,04,14,45,14.30
2010,11,04,14,46,14.30
2010,11,04,14,47,14.20
2010,11,04,14,48,14.20
2010,11,04,14,49,14.20
2010,11,04,14,50,14.30
2010,11,04,14,51,14.30
2010,11,04,14,52,14.30
2010,11,04,14,53,14.30
2010,11,04,14,54,14.40
2010,11,04,14,55,14.40
2010,11,04,14,56,14.40
2010,11,04,14,57,14.40
2010,11,04,14,58,14.50
2010,11,04,14,59,14.50
2010,11,04,15,00,14.50
2010,11,04,15,01,14.50
2010,11,04,15,02,14.50
2010,11,04,15,03,14.50
2010,11,04,15,04,14.50
2010,11,04,15,05,14.50
2010,11,04,15,06,14.50
2010,11,04,15,07,14.50
2010,11,04,15,08,14.50
2010,11,04,15,09,14.60
2010,11,04,15,10,14.60
2010,11,04,15,11,14.70
2010,11,04,15,12,14.70
2010,11,04,15,13,14.70
2010,11,04,15,14,14.70
2010,11,04,15,15,14.70
2010,11,04,15,16,14.70
2010,11,04,15,17,14.70
2010,11,04,15,18,14.80
2010,11,04,15,19,14.80
2010,11,04,15,20,14.80
2010,11,04,15,21,14.80
2010,11,04,15,22,14.90
2010,11,04,15,23,14.90
2010,11,04,15,24,14.90
2010,11,04,15,25,15.00
2010,11,04,15,26,15.00
2010,11,04,15,27,15.00
2010,11,04,15,28,15.00
2010,11,04,15,29,15.00
2010,11,04,15,30,14.90
2010,11,04,15,31,14.80
2010,11,04,15,32,14.80
2010,11,04,15,33,14.70
2010,11,04,15,34,14.70
2010,11,04,15,35,14.60
2010,11,04,15,36,14.50
2010,11,04,15,37,14.40
2010,11,04,15,38,14.40
2010,11,04,15,39,14.30
2010,11,04,15,40,14.20
2010,11,04,15,41,14.20
2010,11,04,15,42,14.10
2010,11,04,15,43,14.10
2010,11,04,15,44,14.00
2010,11,04,15,45,13.90
2010,11,04,15,46,13.90
2010,11,04,15,47,13.80
2010,11,04,15,48,13.80
2010,11,04,15,49,13.70
2010,11,04,15,50,13.70
2010,11,04,15,51,13.60
2010,11,04,15,52,13.60
2010,11,04,15,53,13.60
2010,11,04,15,54,13.60
2010,11,04,15,55,13.60
2010,11,04,15,56,13.50
2010,11,04,15,57,13.50
2010,11,04,15,58,13.50
2010,11,04,15,59,13.40
2010,11,04,16,00,13.40
2010,11,04,16,01,13.40
2010,11,04,16,02,13.40
2010,11,04,16,03,13.40
2010,11,04,16,04,13.40
2010,11,04,16,05,13.40
2010,11,04,16,06,13.40
2010,11,04,16,07,13.30
2010,11,04,16,08,13.30
2010,11,04,16,09,13.30
2010,11,04,16,10,13.20
2010,11,04,16,11,13.20
2010,11,04,16,12,13.20
2010,11,04,16,13,13.10
2010,11,04,16,14,13.10
2010,11,04,16,15,13.10
2010,11,04,16,16,13.10
2010,11,04,16,17,13.00
2010,11,04,16,18,13.00
2010,11,04,16,19,12.90
2010,11,04,16,20,12.90
2010,11,04,16,21,12.80
2010,11,04,16,22,12.80
2010,11,04,16,23,12.80
2010,11,04,16,24,12.80
2010,11,04,16,25,12.80
2010,11,04,16,26,12.80
2010,11,04,16,27,12.80
2010,11,04,16,28,12.80
2010,11,04,16,29,12.80
2010,11,04,16,30,12.80
2010,11,04,16,31,12.80
2010,11,04,16,32,12.70
2010,11,04,16,33,12.70
2010,11,04,16,34,12.70
2010,11,04,16,35,12.70
2010,11,04,16,36,12.70
2010,11,04,16,37,12.70
2010,11,04,16,38,12.60
2010,11,04,16,39,12.60
2010,11,04,16,40,12.60
2010,11,04,16,41,12.60
2010,11,04,16,42,12.60
2010,11,04,16,43,12.60
2010,11,04,16,44,12.60
2010,11,04,16,45,12.60
2010,11,04,16,46,12.50
2010,11,04,16,47,12.50
2010,11,04,16,48,12.50
2010,11,04,16,49,12.50
2010,11,04,16,50,12.50
2010,11,04,16,51,12.40
2010,11,04,16,52,12.40
2010,11,04,16,53,12.40
2010,11,04,16,54,12.40
2010,11,04,16,55,12.40
2010,11,04,16,56,12.40
2010,11,04,16,57,12.40
2010,11,04,16,58,12.40
2010,11,04,16,59,12.40
2010,11,04,17,00,12.40
2010,11,04,17,01,12.40
2010,11,04,17,02,12.40
2010,11,04,17,03,12.40
2010,11,04,17,04,12.40
2010,11,04,17,05,12.40
2010,11,04,17,06,12.40
2010,11,04,17,07,12.30
2010,11,04,17,08,12.30
2010,11,04,17,09,12.30
2010,11,04,17,10,12.30
2010,11,04,17,11,12.30
2010,11,04,17,12,12.20
2010,11,04,17,13,12.20
2010,11,04,17,14,12.20
2010,11,04,17,15,12.10
2010,11,04,17,16,12.10
2010,11,04,17,17,12.10
2010,11,04,17,18,12.10
2010,11,04,17,19,12.10
2010,11,04,17,20,12.10
2010,11,04,17,21,12.10
2010,11,04,17,22,12.10
2010,11,04,17,23,12.10
2010,11,04,17,24,12.10
2010,11,04,17,25,12.10
2010,11,04,17,26,12.10
2010,11,04,17,27,12.10
2010,11,04,17,28,12.10
2010,11,04,17,29,12.10
2010,11,04,17,30,12.10
2010,11,04,17,31,12.10
2010,11,04,17,32,12.10
2010,11,04,17,33,12.00
2010,11,04,17,34,12.10
2010,11,04,17,35,12.10
2010,11,04,17,36,12.10
2010,11,04,17,37,12.10
2010,11,04,17,38,12.00
2010,11,04,17,39,12.00
2010,11,04,17,40,12.00
2010,11,04,17,41,12.00
2010,11,04,17,42,12.00
2010,11,04,17,43,12.00
2010,11,04,17,44,11.90
2010,11,04,17,45,11.90
2010,11,04,17,46,11.90
2010,11,04,17,47,11.90
2010,11,04,17,48,11.90
2010,11,04,17,49,11.90
2010,11,04,17,50,11.90
2010,11,04,17,51,11.90